AirNav   Everest Fuels
 
 371 users online  

1AL9 Barber Marina Heliport
Elberta, Alabama, USA

GOING TO ELBERTA?


FAA INFORMATION EFFECTIVE 16 JULY 2020

Location

FAA Identifier: 1AL9
Lat/Long: 30-18-55.6200N 087-34-20.5600W
30-18.927000N 087-34.342667W
30.3154500,-87.5723778
(estimated)
Elevation: 14 ft. / 4 m (estimated)
From city: 6 miles SE of ELBERTA, AL
Time zone: UTC -5 (UTC -6 during Standard Time)
Zip code: 36561

Heliport Operations

Heliport use: Private use. Permission required prior to landing
Activation date: 04/2017
Control tower: no
ARTCC: JACKSONVILLE CENTER
FSS: ANNISTON FLIGHT SERVICE STATION
Attendance: 
Wind indicator: lighted
Segmented circle: no
Beacon: white-green-yellow (heliport)
Operates sunset to sunrise.

Heliport Communications

WX AWOS-3PT at JKA (5 nm W): 134.525 (251-968-7581)
WX AWOS-3PT at CQF (18 nm NW): 118.425 (251-928-3242)

Nearby radio navigation aids

VOR radial/distance  VOR name  Freq  Var
NUNr231/(15.4)SAUFLEY VOR108.8001E
BFMr122/30.7BROOKLEY VORTAC112.8004E

 
NDB name  Hdg/Dist  Freq  Var  ID
PICKENS252/21.732602WPKZ .--. -.- --..

Heliport Services

Runway Information

Helipad H1

Dimensions: 65 x 65 ft. / 20 x 20 m
Surface: concrete
Latitude: 30-18.927000N
Longitude: 087-34.342667W
Elevation: 14.0 ft.
Traffic pattern: leftleft

Heliport Ownership and Management from official FAA records

Ownership: Privately-owned
Owner: GEORGE BARBER JR
26986 FISH TRAP ROAD
ELBERTA, AL 36350
Phone 251.987.2628
Manager: DALE J. SIEBERT
26986 FISH TRAP ROAD
ELBERTA, AL 36350
Phone 2519872628

Additional Remarks

FOR CD CTC PENSACOLA APCH AT 850-266-6884 OR 850-266-6885.

Instrument Procedures

There are no published instrument procedures at 1AL9.

Some nearby airports with instrument procedures:

KJKA - Jack Edwards National Airport (5 nm W)
5R4 - Foley Municipal Airport (9 nm NW)
KNPA - Pensacola Naval Air Station/Forrest Sherman Field (13 nm E)
KCQF - H L Sonny Callahan Airport (18 nm NW)
KPNS - Pensacola International Airport (22 nm NE)
 
Loc | Ops | Rwys | IFR | FBO | Links
Com | Nav | Svcs | Stats | Notes

Continental Services
AirBoss

 
Aerial photo
No photo
 
Airport distance calculator
Flying to Barber Marina Heliport? Find the distance to fly.

From to 1AL9

Sunrise and sunset
Times for 08-Aug-2020
 Local
(UTC-5)
 Zulu
(UTC)
Morning civil twilight05:4910:49
Sunrise06:1511:15
Sunset19:3700:37
Evening civil twilight20:0301:03

Current date and time
Zulu (UTC)  08-Aug-2020 08:19:53
Local (UTC-5)  08-Aug-2020 03:19:53
 
METAR
KJKA 
5nm W 
080755Z AUTO 00000KT 7SM CLR 24/24 A3008 RMK AO2 T02400235
KNPA 
13nm E 
080756Z AUTO 00000KT 10SM CLR 24/23 A3007 RMK AO2 SLP184 T02440228
KCQF 
18nm NW 
080755Z AUTO 00000KT 10SM SCT024 23/22 A3008 RMK AO2
TAF
KNPA 
13nm E 
0715/0815 VRB06KT 9999 VCTS FEW035CB SCT100 SCT250 QNH3000INS TEMPO 0715/0719 8000 SHRA SCT030CB BKN100 BKN250 FM071900 21010KT 9999 FEW040 SCT100 SCT250 QNH2996INS FM080100 VRB05KT 9999 FEW030 SCT100 QNH2998INS LAST NO AMDS AFT 0801 NEXT 1007 T33/0718Z T25/0811Z FN20053
NOTAMs
Click for the latest NOTAMs
NOTAMs are issued by the DoD/FAA and will open in a separate window not controlled by AirNav.

 

 
 

Would you like to see your business listed on this page?

 If your business provides an interesting product or service to pilots, flight crews, aircraft, or users of the Barber Marina Heliport, you should consider listing it here.  To start the listing process, click on the button below
 
Add a business
 

Other Pages about Barber Marina Heliport

Update a link
 
Copyright © AirNav, LLC. All rights reserved. Privacy Policy  Contact